Location: Tabor
(49.4170°N, 14.6670°E)
Time: 16:16:17
(UTC+02:00)

ISS - Visible Passes

Search period start: 18 September 2018 00:00
Search period end: 28 September 2018 00:00
Orbit: 402 x 408 km, 51.6° (Epoch: 18 September)

Date Brightness Start Highest point End Pass type
(mag) Time Alt. Az. Time Alt. Az. Time Alt. Az.
22 Sep -2.1 20:26:43 10° SSW 20:28:32 20° SSE 20:28:32 20° SSE visible
23 Sep -1.7 19:35:49 10° SSE 19:37:30 13° SE 19:39:09 10° ESE visible
23 Sep -2.1 21:10:13 10° SW 21:11:51 26° SW 21:11:51 26° SW visible
24 Sep -3.3 20:18:24 10° SW 20:21:30 39° SSE 20:22:16 33° ESE visible
24 Sep -0.7 21:54:38 10° W 21:54:57 12° W 21:54:57 12° W visible
25 Sep -2.5 19:26:49 10° SSW 19:29:35 25° SE 19:32:22 10° E visible
25 Sep -3.2 21:02:32 10° WSW 21:05:12 55° W 21:05:12 55° W visible
26 Sep -3.9 20:10:30 10° WSW 20:13:47 70° SSE 20:15:20 28° E visible
26 Sep -0.9 21:47:07 10° W 21:47:59 17° W 21:47:59 17° W visible
27 Sep -3.4 19:18:35 10° SW 19:21:45 46° SSE 19:24:56 10° ENE visible
27 Sep -3.4 20:54:57 10° W 20:58:01 61° NNW 20:58:01 61° NNW visible
